Weather History for Perry, FL

Change the Weather History Date:

Wednesday, July 3, 2013

  Actual Average (KCTY) Record (KCTY)
Temperature  
Mean Temperature 78 °F 81 °F  
Max Temperature 88 °F 91 °F 97 °F (1998)
Min Temperature 69 °F 71 °F 64 °F (2000)
Degree Days  
Heating Degree Days 0 0  
Month to date heating degree days 0  
Since 1 June heating degree days 0  
Since 1 July heating degree days 0  
Cooling Degree Days 14 16  
Month to date cooling degree days 48  
Year to date cooling degree days 974  
Since 1 June cooling degree days 495  
Growing Degree Days 28 (Base 50)    
Moisture  
Dew Point 70 °F    
Average Humidity 84    
Maximum Humidity 100    
Minimum Humidity 58    
Precipitation  
Precipitation 0.46 in 0.16 in 1.65 in (2013)
Month to date precipitation 0.49  
Year to date precipitation 22.75  
Sea Level Pressure  
Sea Level Pressure 30.08 in    
Wind  
Wind Speed 5 mph (SE)    
Max Wind Speed 16 mph    
Max Gust Speed 24 mph    
Visibility 10 miles    
Events Rain , Thunderstorm    
T = Trace of Precipitation, MM = Missing Value Source: NWS Daily Summary

Daily Weather History Graph

Daily Weather History Graph

Search for Another Location

Airport:

Trip Planner

Search our weather history database for the weather conditions in past years. The results will help you decide how hot, cold, wet, or windy it might be!

Date:

Astronomy

Jul. 03, 2013 Rise Set
Actual Time 6:37 AM EDT 8:39 PM EDT
Civil Twilight 6:10 AM EDT 9:06 PM EDT
Nautical Twilight 5:37 AM EDT 9:39 PM EDT
Astronomical Twilight 5:01 AM EDT 10:15 PM EDT
Moon 3:06 AM EDT (7/3) 4:55 PM EDT (7/3)
Length of Visible Light 14h 56m
Length of Day
14h 02m
Waning Crescent, 18% of the Moon is Illuminated
Jul 3
Waning Crescent
Jul 8
New
Jul 15
First Quarter
Jul 22
Full
Jul 29
Last Quarter

Hourly Weather History & Observations

Time (EDT) Temp. Heat Index Dew Point Humidity Pressure Visibility Wind Dir Wind Speed Gust Speed Precip Events Conditions
12:15 AM 71.6 °F - 71.6 °F 100% 30.09 in 10.0 mi ESE 3.5 mph - N/A   Clear
12:35 AM 71.6 °F - 69.8 °F 94% 30.09 in 10.0 mi Calm Calm - N/A Thunderstorm Thunderstorm
12:53 AM 73.9 °F - 71.1 °F 91% 30.07 in - Calm Calm - N/A   Unknown
12:55 AM 71.6 °F - 69.8 °F 94% 30.09 in 10.0 mi SE 3.5 mph - N/A   Clear
1:15 AM 71.6 °F - 69.8 °F 94% 30.08 in 10.0 mi Calm Calm - N/A   Clear
1:35 AM 71.6 °F - 69.8 °F 94% 30.07 in 10.0 mi ESE 4.6 mph - N/A   Clear
1:53 AM 73.9 °F - 70.0 °F 87% 30.05 in - ESE 4.6 mph - N/A   Unknown
1:55 AM 71.6 °F - 69.8 °F 94% 30.07 in 10.0 mi ESE 4.6 mph - N/A   Clear
2:15 AM 71.6 °F - 69.8 °F 94% 30.07 in 10.0 mi Calm Calm - N/A   Clear
2:35 AM 71.6 °F - 69.8 °F 94% 30.07 in 10.0 mi ESE 4.6 mph - N/A   Clear
2:53 AM 73.0 °F - 69.1 °F 87% 30.05 in - ESE 4.6 mph - N/A   Unknown
2:55 AM 71.6 °F - 69.8 °F 94% 30.06 in 10.0 mi SE 5.8 mph - N/A   Clear
3:15 AM 69.8 °F - 69.8 °F 100% 30.05 in 10.0 mi ESE 5.8 mph - N/A   Clear
3:35 AM 71.6 °F - 69.8 °F 94% 30.05 in 10.0 mi SE 5.8 mph - N/A   Clear
3:53 AM 73.0 °F - 69.1 °F 87% 30.04 in - ESE 8.1 mph - N/A   Unknown
3:55 AM 69.8 °F - 69.8 °F 100% 30.05 in 10.0 mi ESE 6.9 mph - N/A   Clear
4:15 AM 69.8 °F - 69.8 °F 100% 30.06 in 10.0 mi SE 6.9 mph - N/A   Clear
4:35 AM 69.8 °F - 69.8 °F 100% 30.06 in 10.0 mi ESE 6.9 mph - N/A   Clear
4:53 AM 73.0 °F - 69.1 °F 87% 30.04 in - ESE 6.9 mph - N/A   Unknown
4:55 AM 69.8 °F - 69.8 °F 100% 30.06 in 10.0 mi ESE 8.1 mph - N/A   Clear
5:15 AM 69.8 °F - 69.8 °F 100% 30.06 in 10.0 mi ESE 8.1 mph - N/A   Scattered Clouds
5:35 AM 71.6 °F - 69.8 °F 94% 30.07 in 10.0 mi ESE 5.8 mph - N/A Thunderstorm Scattered Clouds
5:53 AM 73.0 °F - 69.1 °F 87% 30.06 in - ESE 5.8 mph - N/A   Unknown
5:55 AM 71.6 °F - 69.8 °F 94% 30.07 in 10.0 mi ESE 5.8 mph - N/A Thunderstorm Mostly Cloudy
6:15 AM 71.6 °F - 69.8 °F 94% 30.08 in 10.0 mi ESE 4.6 mph - N/A Thunderstorm Mostly Cloudy
6:35 AM 71.6 °F - 69.8 °F 94% 30.08 in 10.0 mi SE 4.6 mph - N/A Thunderstorm Mostly Cloudy
6:53 AM 73.0 °F - 70.0 °F 90% 30.07 in - ESE 4.6 mph - 0.01 in   Unknown
6:55 AM 71.6 °F - 69.8 °F 94% 30.08 in 10.0 mi ESE 4.6 mph - N/A   Mostly Cloudy
7:15 AM 71.6 °F - 69.8 °F 94% 30.09 in 10.0 mi ESE 3.5 mph - N/A   Mostly Cloudy
7:35 AM 71.6 °F - 69.8 °F 94% 30.09 in 10.0 mi East 5.8 mph - N/A   Scattered Clouds
7:53 AM 73.0 °F - 70.0 °F 90% 30.08 in - East 5.8 mph - N/A   Unknown
7:55 AM 71.6 °F - 69.8 °F 94% 30.09 in 10.0 mi ESE 5.8 mph - N/A   Clear
8:15 AM 71.6 °F - 69.8 °F 94% 30.09 in 10.0 mi ESE 5.8 mph - N/A   Clear
8:35 AM 71.6 °F - 69.8 °F 94% 30.10 in 10.0 mi ESE 8.1 mph - N/A   Clear
8:53 AM 77.0 °F - 72.0 °F 84% 30.09 in - ESE 10.4 mph - N/A   Unknown
8:55 AM 75.2 °F - 71.6 °F 89% 30.10 in 10.0 mi SE 9.2 mph - N/A   Clear
9:15 AM 77.0 °F - 71.6 °F 83% 30.10 in 10.0 mi ESE 6.9 mph - N/A   Clear
9:35 AM 77.0 °F - 71.6 °F 83% 30.10 in 10.0 mi SE 5.8 mph - N/A   Clear
9:53 AM 79.0 °F - 72.0 °F 79% 30.10 in - SE 6.9 mph - N/A   Unknown
9:55 AM 77.0 °F - 71.6 °F 83% 30.11 in 10.0 mi SSE 6.9 mph - N/A   Clear
10:15 AM 77.0 °F - 71.6 °F 83% 30.12 in 10.0 mi SSE 8.1 mph - N/A   Clear
10:35 AM 77.0 °F - 71.6 °F 83% 30.11 in 10.0 mi SE 6.9 mph - N/A   Clear
10:53 AM 80.1 °F 83.8 °F 72.0 °F 76% 30.09 in - ESE 6.9 mph - N/A   Unknown
10:55 AM 78.8 °F - 71.6 °F 78% 30.10 in 10.0 mi ESE 5.8 mph - N/A   Clear
11:15 AM 78.8 °F - 71.6 °F 78% 30.11 in 10.0 mi SE 8.1 mph - N/A Thunderstorm Clear
11:35 AM 78.8 °F - 71.6 °F 78% 30.12 in 10.0 mi SE 6.9 mph - N/A   Clear
11:53 AM 82.9 °F 88.8 °F 73.0 °F 72% 30.10 in - SSE 9.2 mph - N/A   Unknown
11:55 AM 80.6 °F 84.6 °F 71.6 °F 74% 30.12 in 10.0 mi SE 10.4 mph - N/A   Clear
12:15 PM 80.6 °F 84.6 °F 71.6 °F 74% 30.11 in 10.0 mi SSE 8.1 mph - N/A   Clear
12:35 PM 82.4 °F 87.2 °F 71.6 °F 70% 30.11 in 10.0 mi SSE 10.4 mph - N/A   Clear
12:53 PM 86.0 °F 93.0 °F 73.0 °F 65% 30.09 in - SSE 10.4 mph - N/A   Unknown
12:55 PM 82.4 °F 87.2 °F 71.6 °F 70% 30.11 in 10.0 mi SSE 9.2 mph - N/A   Scattered Clouds
1:15 PM 84.2 °F 89.6 °F 71.6 °F 66% 30.10 in 10.0 mi SE 8.1 mph - N/A   Scattered Clouds
1:35 PM 84.2 °F 88.4 °F 69.8 °F 62% 30.10 in 10.0 mi SSE 6.9 mph - N/A Thunderstorm Scattered Clouds
1:53 PM 84.9 °F 90.1 °F 71.1 °F 63% 30.08 in - SSE 9.2 mph - N/A   Unknown
1:55 PM 82.4 °F 86.3 °F 69.8 °F 66% 30.09 in 10.0 mi SSE 9.2 mph - N/A   Scattered Clouds
2:15 PM 82.4 °F 86.3 °F 69.8 °F 66% 30.09 in 10.0 mi South 9.2 mph - N/A   Clear
2:35 PM 82.4 °F 87.2 °F 71.6 °F 70% 30.08 in 10.0 mi SSE 4.6 mph - N/A   Clear
2:53 PM 86.0 °F 92.2 °F 72.0 °F 63% 30.06 in - South 6.9 mph - N/A   Unknown
2:55 PM 84.2 °F 89.6 °F 71.6 °F 66% 30.08 in 10.0 mi South 4.6 mph - N/A   Scattered Clouds
3:15 PM 84.2 °F 89.6 °F 71.6 °F 66% 30.07 in 10.0 mi South 11.5 mph 16.1 mph N/A   Mostly Cloudy
3:35 PM 86.0 °F 90.4 °F 69.8 °F 58% 30.06 in 10.0 mi South 10.4 mph - N/A   Scattered Clouds
3:53 PM 86.0 °F 92.2 °F 72.0 °F 63% 30.04 in - SSW 10.4 mph - N/A   Unknown
3:55 PM 84.2 °F 89.6 °F 71.6 °F 66% 30.05 in 10.0 mi South 9.2 mph - N/A   Clear
4:15 PM 84.2 °F 88.4 °F 69.8 °F 62% 30.05 in 10.0 mi SSW 6.9 mph - N/A   Clear
4:35 PM 86.0 °F 91.8 °F 71.6 °F 62% 30.05 in 10.0 mi South 5.8 mph - N/A   Clear
4:53 PM 88.0 °F 94.7 °F 72.0 °F 59% 30.03 in - SSE 11.5 mph - N/A   Unknown
4:55 PM 86.0 °F 91.8 °F 71.6 °F 62% 30.05 in 10.0 mi South 9.2 mph - N/A Thunderstorm Clear
5:15 PM 86.0 °F 91.8 °F 71.6 °F 62% 30.05 in 10.0 mi South 10.4 mph - N/A Thunderstorm Clear
5:35 PM 86.0 °F 91.8 °F 71.6 °F 62% 30.05 in 10.0 mi SSW 9.2 mph - N/A Thunderstorm Clear
5:53 PM 87.1 °F 93.6 °F 72.0 °F 61% 30.05 in - South 10.4 mph - N/A   Unknown
5:55 PM 86.0 °F 90.4 °F 69.8 °F 58% 30.06 in 10.0 mi SSE 8.1 mph - N/A Thunderstorm Scattered Clouds
6:15 PM 78.8 °F - 69.8 °F 74% 30.09 in 10.0 mi ESE 13.8 mph 23.0 mph N/A Thunderstorm Thunderstorm
6:35 PM 77.0 °F - 69.8 °F 78% 30.12 in 4.0 mi SSE 16.1 mph 24.2 mph 0.08 in Rain , Thunderstorm Heavy Thunderstorms and Rain
6:53 PM 73.9 °F - 70.0 °F 87% 30.09 in - SSE 8.1 mph - 0.36 in   Unknown
6:55 PM 71.6 °F - 69.8 °F 94% 30.11 in 4.0 mi SSE 5.8 mph 16.1 mph 0.33 in Rain , Thunderstorm Thunderstorms and Rain
7:15 PM 71.6 °F - 68.0 °F 88% 30.10 in 7.0 mi SSE 6.9 mph - 0.02 in Rain , Thunderstorm Light Thunderstorms and Rain
7:35 PM 71.6 °F - 68.0 °F 88% 30.11 in 7.0 mi Calm Calm - 0.03 in Rain Rain
7:53 PM 73.0 °F - 70.0 °F 90% 30.09 in - East 3.5 mph - 0.05 in   Unknown
7:55 PM 71.6 °F - 69.8 °F 94% 30.10 in 10.0 mi East 3.5 mph - 0.05 in Rain Rain
8:15 PM 71.6 °F - 69.8 °F 94% 30.09 in 10.0 mi ESE 4.6 mph - 0.01 in Rain Light Rain
8:35 PM 71.6 °F - 69.8 °F 94% 30.09 in 10.0 mi ESE 3.5 mph - 0.01 in Rain Light Rain
8:53 PM 73.0 °F - 70.0 °F 90% 30.06 in - Calm Calm - 0.04 in   Unknown
8:55 PM 71.6 °F - 69.8 °F 94% 30.08 in 10.0 mi Calm Calm - 0.03 in Rain Light Rain
9:15 PM 71.6 °F - 69.8 °F 94% 30.08 in 10.0 mi Calm Calm - N/A Rain Light Rain
9:35 PM 71.6 °F - 69.8 °F 94% 30.08 in 10.0 mi East 6.9 mph - N/A   Clear
9:53 PM 73.9 °F - 71.1 °F 91% 30.07 in - ESE 8.1 mph - N/A   Unknown
9:55 PM 71.6 °F - 69.8 °F 94% 30.09 in 10.0 mi ESE 6.9 mph - N/A   Scattered Clouds
10:15 PM 71.6 °F - 69.8 °F 94% 30.09 in 10.0 mi SE 5.8 mph - N/A   Scattered Clouds
10:35 PM 71.6 °F - 69.8 °F 94% 30.11 in 10.0 mi East 8.1 mph - N/A   Scattered Clouds
10:53 PM 73.9 °F - 71.1 °F 91% 30.09 in - Variable 5.8 mph - N/A   Unknown
10:55 PM 71.6 °F - 69.8 °F 94% 30.10 in 7.0 mi East 6.9 mph - N/A   Scattered Clouds
11:15 PM 71.6 °F - 69.8 °F 94% 30.12 in 10.0 mi ESE 5.8 mph - N/A   Scattered Clouds
11:35 PM 71.6 °F - 69.8 °F 94% 30.11 in 10.0 mi East 3.5 mph - N/A   Scattered Clouds
11:53 PM 73.9 °F - 71.1 °F 91% 30.10 in - East 4.6 mph - N/A   Unknown
11:55 PM 71.6 °F - 69.8 °F 94% 30.12 in 10.0 mi East 4.6 mph - N/A   Clear